Northeast Kansas Weather Roundup

By: AP-Posted by Taylor Williamson
By: AP-Posted by Taylor Williamson

NORTHEAST KANSAS

CITY SKY TMP DP RH WIND PRES
CONCORDIA SUNNY 37 14 38 E7 30.45F
6HR MIN TEMP: 21; 6HR MAX TEMP: 37;

EMPORIA MOSUNNY 41 17 38 E12 30.45F
6HR MIN TEMP: 27; 6HR MAX TEMP: 42;

LAWRENCE MOSUNNY 43 15 32 NE9 30.48F
6HR MIN TEMP: 26; 6HR MAX TEMP: 44;

MANHATTAN SUNNY 40 16 37 E9 30.47F
6HR MIN TEMP: 23; 6HR MAX TEMP: 40;

OLATHE IND MOSUNNY 40 15 36 NE12 30.47F WCI 33
OLATHE EXE MOSUNNY 40 14 34 N8 30.46F
6HR MIN TEMP: 30; 6HR MAX TEMP: 40;

SALINA SUNNY 39 17 41 E8 30.46F
6HR MIN TEMP: 23; 6HR MAX TEMP: 40;

TOPEKA BILLARD SUNNY 42 18 37 NE9 30.49F
6HR MIN TEMP: 27; 6HR MAX TEMP: 42;

TOPEKA FORBES SUNNY 42 17 36 VRB3 30.47F
6HR MIN TEMP: 29; 6HR MAX TEMP: 42;


Comments are posted from viewers like you and do not always reflect the views of this station.
powered by Disqus
631 SW Commerce Pl. Topeka, Kansas 66615 phone: 785-272-6397 fax: 785-272-1363 email: feedback@wibw.com
Copyright © 2002-2014 - Designed by Gray Digital Media - Powered by Clickability 140592363 - wibw.com/a?a=140592363
Gray Television, Inc.